Regional Weather Roundup
Issued by NWS Green Bay, WI

Home | Current Version | Previous Version | Text Only | Print | Product List | Glossary On
Versions: 1 2 3 4 5 6 7 8 9 10 11 12 13 14 15 16 17 18 19 20 21 22 23 24 25 26 27 28 29 30 31 32 33 34 35 36 37 38 39 40 41 42 43 44 45 46 47 48 49 50
000
ASUS43 KGRB 070711
RWRGRB

NORTH-CENTRAL AND NORTHEAST WISCONSIN REGIONAL WEATHER ROUNDUP
NATIONAL WEATHER SERVICE GREEN BAY WI
200 AM CDT TUE JUL 07 2015

WIZ005-009-010>012-018-019-070800-
NORTH CENTRAL WISCONSIN

CITY           SKY/WX    TMP DP  RH WIND       PRES   REMARKS
IRONWOOD       CLOUDY    52  48  87 N6        29.99S
MANITOWISH WTR CLOUDY    52  48  87 N10       30.00S
ARBOR VITAE    CLOUDY    54  51  87 N12G18    29.99R
EAGLE RIVER    CLOUDY    54  52  94 N9G16     29.97R
LAND O LAKES   CLOUDY    53  48  83 N9G20     29.99R
RHINELANDER    CLOUDY    57  53  86 NW6       29.97R FOG
PHILLIPS       CLEAR     52  49  90 N8        29.99S
ANTIGO         MOCLDY    56  54  93 N10       29.95R FOG
TOMAHAWK       PTCLDY    53  50  91 NW7       29.98R
MERRILL          N/A     54  54 100 N3        29.97R FOG
$$

WIZ013-073-070800-
NORTHEAST WISCONSIN

CITY           SKY/WX    TMP DP  RH WIND       PRES   REMARKS
IRON MOUNTAIN  CLOUDY    56  52  86 N8        29.92R FOG
MARINETTE      CLOUDY    57  54  88 N9        29.90R
OCONTO         CLOUDY    59  59 100 N5        29.90R
$$

WIZ017-030-035>037-045-070800-
CENTRAL WISCONSIN

CITY           SKY/WX    TMP DP  RH WIND       PRES   REMARKS
MEDFORD        PTCLDY    54  52  92 N9        29.98R FOG
WAUSAU         MOCLDY    57  53  86 NW6       29.95R FOG
MOSINEE        MOCLDY    54  54 100 N8        29.97R FOG
MARSHFIELD     CLEAR     57  52  83 N9        29.96R HAZE
WISC RAPIDS    CLEAR     58  53  84 N8        29.96R HAZE
STEVENS POINT  MOCLDY    55  54  95 NW5       29.96R FOG
WAUPACA        MOCLDY    63  58  82 NW6       29.93R HAZE
SHAWANO        CLOUDY    62  57  84 NW5       29.92R HAZE
CLINTONVILLE   CLOUDY    61  55  82 N6        29.92R HAZE
$$

WIZ038-039-048-051-070800-
FOX VALLEY

CITY           SKY/WX    TMP DP  RH WIND       PRES   REMARKS
NWS GREEN BAY  CLOUDY    62  57  83 N9        29.90R HAZE
APPLETON       CLOUDY    61  54  77 N9        29.92R HAZE
OSHKOSH        CLOUDY    61  57  87 N10       29.91R FOG
FOND DU LAC    LGT RAIN  61  59  93 N16       29.91R FOG
$$

WIZ022-050-052-070800-
EAST CENTRAL WISCONSIN

CITY           SKY/WX    TMP DP  RH WIND       PRES   REMARKS
STURGEON BAY   CLOUDY    61  54  77 N20       29.91R
MANITOWOC      RAIN      59  58  96 MISG      29.88R FOG
SHEBOYGAN      LGT RAIN  59  58  96 N3        29.89R FOG
$$

LMZ563-521-522-541>543-070800-
LAKESHORE

STATION/POSITION TIME  TEMP    WIND        PRES    VSBY  WAVE
                       AIR SEA DIR/SP/G                  HT/PER
                 (UTC) (F)     (DEG/KT/KT) (MB)    (MI)  (FT/S)
SHEBOYGAN LKSHOR 0700   56     360/ 13/ 13 1012.0R
KEWAUNEE LKSHORE 0600   60      10/  9/ 17 1011.0R
ALGOMA MARINA    0611          360/  7/ 12   N/A
NORTHPORT PIER   0613   60     350/ 18/ 25 1011.5S
N MID LAKE BUOY  0650   56 56  320/ 14/ 16 1011.2R         2/ 5
SISTER BAY LKSHO 0614   58     360/ 17/ 25   N/A
CHAMBERS ISLAND  0600   61     340/ 19/ 23 1012.2R
MENOMINEE LKSHOR 0600   59     340/ 11/ 13 1012.8R
$$


USA.gov is the U.S. government's official web portal to all federal, state and local government web resources and services.